Weather History for KCON - October, 2012

Change the Weather History Date:

Wednesday, October 31, 2012

  Actual Average Record
Temperature  
Mean Temperature 51 °F 43 °F  
Max Temperature 57 °F 55 °F 78 °F (1946)
Min Temperature 45 °F 32 °F 14 °F (1966)
Degree Days  
Heating Degree Days 14 22  
Month to date heating degree days 404 524  
Since 1 July heating degree days 606 759  
Cooling Degree Days 0 0  
Month to date cooling degree days 1 2  
Year to date cooling degree days 569 452  
Growing Degree Days 2 (Base 50)    
Moisture  
Dew Point 48 °F    
Average Humidity 83    
Maximum Humidity 100    
Minimum Humidity 66    
Precipitation  
Precipitation T in 0.13 in 1.69 in (1939)
Month to date precipitation 3.48 4.04  
Year to date precipitation 34.49 33.69  
Snow  
Snow 0.00 in 0.00 in 3.00 in (1884)
Month to date snowfall 0.0 T  
Since 1 July snowfall 0.0 T  
Since 1 September snowfall 0.0 T  
Snow Depth 0.00 in    
Sea Level Pressure  
Sea Level Pressure 29.52 in    
Wind  
Wind Speed 6 mph (SSE)    
Max Wind Speed 15 mph    
Max Gust Speed 20 mph    
Visibility 6 miles    
Events Fog , Rain    
T = Trace of Precipitation, MM = Missing Value Source: NWS Daily Summary

Daily Weather History Graph

Daily Weather History Graph

Search for Another Location

Airport or City:

Trip Planner

Search our weather history database for the weather conditions in past years. The results will help you decide how hot, cold, wet, or windy it might be!

Date:

Astronomy

Oct. 31, 2012 Rise Set
Actual Time 7:20 AM EDT 5:38 PM EDT
Civil Twilight 6:50 AM EDT 6:07 PM EDT
Nautical Twilight 6:16 AM EDT 6:41 PM EDT
Astronomical Twilight 5:43 AM EDT 7:14 PM EDT
Moon 6:44 PM EDT (10/31) 9:01 AM EDT (10/31)
Length of Visible Light 11h 17m
Length of Day
10h 18m
Full, 97% of the Moon is Illuminated
Oct 31
Full
Nov 6
Last Quarter
Nov 13
New
Nov 20
First Quarter
Nov 28
Full

Hourly Weather History & Observations

Time (EDT) Temp. Dew Point Humidity Pressure Visibility Wind Dir Wind Speed Gust Speed Precip Events Conditions
12:19 AM 48.2 °F 48.2 °F 100% 29.56 in 1.5 mi Calm Calm - N/A   Mostly Cloudy
12:26 AM 48.2 °F 48.2 °F 100% 29.56 in 1.0 mi Calm Calm - N/A   Mostly Cloudy
12:37 AM 50.0 °F 50.0 °F 100% 29.56 in 2.0 mi Calm Calm - N/A   Mostly Cloudy
12:51 AM 50.0 °F 50.0 °F 100% 29.55 in 1.8 mi NE 3.5 mph - N/A   Mostly Cloudy
12:56 AM 50.0 °F 50.0 °F 100% 29.55 in 3.0 mi ENE 3.5 mph - N/A   Mostly Cloudy
1:05 AM 50.0 °F 50.0 °F 100% 29.54 in 2.0 mi Calm Calm - N/A   Mostly Cloudy
1:07 AM 48.2 °F 48.2 °F 100% 29.53 in 1.2 mi Calm Calm - N/A   Mostly Cloudy
1:15 AM 50.0 °F 50.0 °F 100% 29.53 in 0.5 mi Calm Calm - N/A Fog Fog
1:21 AM 50.0 °F 50.0 °F 100% 29.53 in 1.5 mi ENE 3.5 mph - N/A   Scattered Clouds
1:24 AM 50.0 °F 50.0 °F 100% 29.53 in 3.0 mi Calm Calm - N/A   Scattered Clouds
1:51 AM 48.9 °F 48.9 °F 100% 29.52 in 5.0 mi WSW 3.5 mph - N/A   Partly Cloudy
1:57 AM 48.2 °F 48.2 °F 100% 29.52 in 1.2 mi Calm Calm - N/A   Partly Cloudy
2:03 AM 48.2 °F 48.2 °F 100% 29.52 in 0.2 mi Calm Calm - N/A Fog Fog
2:10 AM 48.2 °F 48.2 °F 100% 29.52 in 0.2 mi ENE 4.6 mph - N/A Fog Fog
2:25 AM 48.2 °F 48.2 °F 100% 29.52 in 0.5 mi Calm Calm - N/A Fog Fog
2:51 AM 48.9 °F 48.9 °F 100% 29.52 in 0.8 mi WSW 3.5 mph - N/A   Overcast
2:58 AM 50.0 °F 50.0 °F 100% 29.52 in 0.5 mi West 3.5 mph - N/A Fog Fog
3:05 AM 50.0 °F 50.0 °F 100% 29.51 in 0.2 mi Calm Calm - N/A Fog Fog
3:51 AM 50.0 °F 50.0 °F 100% 29.51 in 0.2 mi Calm Calm - 0.00 in Fog Fog
4:22 AM 50.0 °F 50.0 °F 100% 29.50 in 0.5 mi Calm Calm - 0.00 in Fog Fog
4:32 AM 50.0 °F 50.0 °F 100% 29.50 in 0.5 mi Calm Calm - 0.00 in Fog Fog
4:51 AM 50.0 °F 50.0 °F 100% 29.49 in 1.0 mi Calm Calm - 0.00 in   Overcast
5:01 AM 50.0 °F 50.0 °F 100% 29.49 in 2.0 mi Calm Calm - N/A   Overcast
5:11 AM 50.0 °F 50.0 °F 100% 29.48 in 5.0 mi Calm Calm - N/A   Overcast
5:51 AM 51.1 °F 51.1 °F 100% 29.47 in 5.0 mi Calm Calm - N/A   Overcast
6:24 AM 55.4 °F 55.4 °F 100% 29.47 in 10.0 mi ESE 8.1 mph - N/A   Overcast
6:47 AM 55.4 °F 55.4 °F 100% 29.46 in 9.0 mi ESE 10.4 mph - N/A   Overcast
6:51 AM 55.0 °F 55.0 °F 100% 29.47 in 10.0 mi ESE 8.1 mph - N/A   Overcast
7:51 AM 55.9 °F 55.0 °F 97% 29.47 in 10.0 mi SE 9.2 mph - N/A   Overcast
8:51 AM 55.9 °F 54.0 °F 93% 29.49 in 10.0 mi South 10.4 mph 19.6 mph N/A   Overcast
9:20 AM 55.4 °F 53.6 °F 94% 29.50 in 10.0 mi South 9.2 mph - N/A   Overcast
9:51 AM 57.0 °F 51.1 °F 81% 29.51 in 10.0 mi South 9.2 mph - N/A   Mostly Cloudy
10:51 AM 55.9 °F 48.0 °F 75% 29.52 in 10.0 mi South 8.1 mph - N/A   Mostly Cloudy
11:51 AM 55.0 °F 46.9 °F 74% 29.53 in 10.0 mi South 10.4 mph - N/A   Overcast
12:51 PM 55.0 °F 46.9 °F 74% 29.52 in 10.0 mi South 10.4 mph 17.3 mph N/A   Overcast
1:51 PM 53.1 °F 45.0 °F 74% 29.52 in 10.0 mi South 8.1 mph - 0.00 in Rain Light Rain
2:51 PM 55.0 °F 43.0 °F 64% 29.50 in 10.0 mi South 8.1 mph - 0.00 in   Overcast
3:51 PM 54.0 °F 43.0 °F 66% 29.51 in 10.0 mi SSE 4.6 mph - N/A   Overcast
4:34 PM 53.6 °F 44.6 °F 72% 29.51 in 10.0 mi South 6.9 mph - 0.00 in Rain Light Rain
4:51 PM 51.1 °F 45.0 °F 80% 29.52 in 10.0 mi South 9.2 mph - 0.00 in Rain Light Rain
5:09 PM 51.8 °F 44.6 °F 76% 29.51 in 10.0 mi SSE 3.5 mph - 0.00 in   Overcast
5:51 PM 48.9 °F 45.0 °F 86% 29.51 in 10.0 mi South 4.6 mph - 0.00 in   Scattered Clouds
6:51 PM 50.0 °F 44.1 °F 80% 29.53 in 10.0 mi South 4.6 mph - N/A   Overcast
7:51 PM 50.0 °F 43.0 °F 77% 29.53 in 10.0 mi South 8.1 mph - N/A   Overcast
8:51 PM 48.9 °F 42.1 °F 77% 29.54 in 10.0 mi South 5.8 mph - N/A   Scattered Clouds
9:51 PM 46.9 °F 42.1 °F 83% 29.54 in 10.0 mi South 5.8 mph - N/A   Scattered Clouds
10:51 PM 46.9 °F 42.1 °F 83% 29.54 in 10.0 mi South 4.6 mph - N/A   Overcast
11:51 PM 46.9 °F 42.1 °F 83% 29.54 in 10.0 mi South 5.8 mph - N/A   Overcast